{"data":{"norad_id":52622,"intl_designator":"2022-052AA","name":"STARLINK-4008","alt_names":[],"object_type":"PAYLOAD","status":"ACTIVE","operator":null,"country":"US","launch_date":"2022-05-14","launch_site_code":"AFETR","launch_vehicle":null,"mission":null,"orbit_class":"UNKNOWN","rcs_meters":null,"size_class":null,"mass_kg":null,"dimensions":null,"purposes":["comms"],"wikipedia_slug":null,"has_3d_model":false,"image_url":null,"decayed_at":null,"tle_current":{"epoch":"2026-09-20T04:42:02.175264Z","epoch_age_seconds":92764,"freshness":"FRESH","line1":"1 52622U 22052AA  26263.19585851 -.00002418  00000+0 -58411-4 0  9998","line2":"2 52622  53.1589 117.8076 0001212  78.4301 281.6838 15.35405602240327","mean_motion":15.35405602,"eccentricity":0.0001212,"inclination_deg":53.1589,"raan_deg":117.8076,"arg_perigee_deg":78.4301,"mean_anomaly_deg":281.6838,"bstar":-5.8411e-5,"rev_number":24032,"period_min":93.786293219477,"perigee_km":458.88726275211,"apogee_km":460.54475832186,"semimajor_km":6837.853010537,"source":"CELESTRAK","updated_at":"2026-09-20T09:00:40.072125Z"}}}